GLO7634 SBBR-KMCO

Flight info

Callsign GLO7634
Flight time N/A
Altitude 34000
Route UGUGA UM409 UDOMA DCT PAMEB DCT LOBEX/N0460F360 DCT VUMPI UL795 LOKUR/N0455F380 UL795 GELOG UL210 BORDO Y259 OCTAL MUNGI1
Aircraft B38M/M-SDE1FGHILORVWXY/HB1

Departure

Time N/A
Airport Presidente Juscelino Kubitschek International Airport (SBBR)

Arrival

Time 2026-04-21 12:04
Airport Orlando International Airport (KMCO)
Time Latitude Longitude Altitude Speed Heading
2026-04-21 04:41 -14.76107 -49.04555 31192 ft 468 kts 322°
2026-04-21 04:41 -14.73430 -49.06413 31374 ft 469 kts 322°
2026-04-21 04:41 -14.70711 -49.08299 31548 ft 471 kts 322°
2026-04-21 04:42 -14.67985 -49.10189 31726 ft 472 kts 322°
2026-04-21 04:42 -14.65254 -49.12083 31898 ft 473 kts 322°
2026-04-21 04:42 -14.62511 -49.13984 32065 ft 475 kts 322°
2026-04-21 04:42 -14.59766 -49.15886 32265 ft 475 kts 322°
2026-04-21 04:43 -14.57024 -49.17786 32502 ft 475 kts 322°
2026-04-21 04:43 -14.54281 -49.19685 32740 ft 474 kts 322°
2026-04-21 04:43 -14.51538 -49.21585 32978 ft 474 kts 322°
2026-04-21 04:43 -14.48802 -49.23478 33208 ft 473 kts 322°
2026-04-21 04:44 -14.46105 -49.25344 33447 ft 473 kts 322°
2026-04-21 04:44 -14.43371 -49.27235 33678 ft 472 kts 322°
2026-04-21 04:44 -14.40639 -49.29124 33901 ft 472 kts 322°
2026-04-21 04:45 -14.35180 -49.32897 33952 ft 471 kts 322°
2026-04-21 04:45 -14.29743 -49.36652 33952 ft 470 kts 322°
2026-04-21 04:46 -14.24306 -49.40405 33960 ft 471 kts 322°
2026-04-21 04:46 -14.18864 -49.44160 33957 ft 471 kts 322°
2026-04-21 04:47 -14.13418 -49.47915 33941 ft 471 kts 322°
2026-04-21 04:47 -14.07973 -49.51668 33938 ft 471 kts 322°
2026-04-21 04:48 -14.02619 -49.55467 33936 ft 467 kts 316°
2026-04-21 04:48 -13.97701 -49.59831 33948 ft 467 kts 315°
2026-04-21 04:49 -13.92796 -49.64210 33943 ft 467 kts 315°
2026-04-21 04:49 -13.87886 -49.68596 33938 ft 467 kts 315°
2026-04-21 04:50 -13.82980 -49.72976 33942 ft 467 kts 315°
2026-04-21 04:50 -13.78071 -49.77356 33943 ft 467 kts 315°
2026-04-21 04:51 -13.73156 -49.81739 33938 ft 467 kts 315°
2026-04-21 04:51 -13.68248 -49.86113 33932 ft 467 kts 315°
2026-04-21 04:52 -13.63332 -49.90491 33933 ft 467 kts 316°
2026-04-21 04:52 -13.58418 -49.94866 33935 ft 467 kts 316°
2026-04-21 04:53 -13.53539 -49.99207 33936 ft 466 kts 316°
2026-04-21 04:53 -13.48632 -50.03571 33934 ft 466 kts 316°
2026-04-21 04:54 -13.44554 -50.07194 33937 ft 466 kts 316°
2026-04-21 04:54 -13.39641 -50.11558 33934 ft 466 kts 316°
2026-04-21 04:55 -13.34734 -50.15915 33935 ft 466 kts 316°
2026-04-21 04:55 -13.29818 -50.20277 33932 ft 466 kts 316°
2026-04-21 04:56 -13.24909 -50.24631 33933 ft 466 kts 316°
2026-04-21 04:56 -13.19993 -50.28988 33935 ft 466 kts 316°
2026-04-21 04:57 -13.15083 -50.33337 33941 ft 466 kts 317°
2026-04-21 04:57 -13.10168 -50.37688 33932 ft 466 kts 317°
2026-04-21 04:58 -13.05288 -50.42006 33928 ft 466 kts 317°
2026-04-21 04:58 -13.00367 -50.46358 33936 ft 466 kts 317°
2026-04-21 04:59 -12.95454 -50.50700 33933 ft 466 kts 317°
2026-04-21 04:59 -12.90532 -50.55048 33928 ft 466 kts 317°
2026-04-21 05:00 -12.85610 -50.59393 33929 ft 467 kts 317°
2026-04-21 05:00 -12.78258 -50.65880 33933 ft 467 kts 317°
2026-04-21 05:01 -12.73333 -50.70223 33930 ft 467 kts 317°
2026-04-21 05:01 -12.68407 -50.74564 33932 ft 467 kts 317°
2026-04-21 05:02 -12.63474 -50.78909 33934 ft 467 kts 317°
2026-04-21 05:02 -12.58541 -50.83251 33933 ft 467 kts 317°
2026-04-21 05:03 -12.53610 -50.87589 33928 ft 467 kts 317°
2026-04-21 05:03 -12.48678 -50.91927 33936 ft 467 kts 317°
2026-04-21 05:04 -12.43740 -50.96267 33929 ft 467 kts 317°
2026-04-21 05:04 -12.38833 -51.00577 33937 ft 468 kts 318°
2026-04-21 05:05 -12.33898 -51.04911 33943 ft 468 kts 318°
2026-04-21 05:05 -12.28953 -51.09250 33937 ft 468 kts 318°
2026-04-21 05:06 -12.24012 -51.13585 33937 ft 468 kts 318°
2026-04-21 05:06 -12.19064 -51.17921 33937 ft 468 kts 318°
2026-04-21 05:07 -12.14115 -51.22257 33939 ft 468 kts 318°
2026-04-21 05:07 -12.09160 -51.26597 33938 ft 469 kts 318°
2026-04-21 05:08 -12.04203 -51.30935 33941 ft 469 kts 318°
2026-04-21 05:08 -11.99240 -51.35276 33904 ft 472 kts 317°
2026-04-21 05:09 -11.94225 -51.39662 33945 ft 478 kts 317°
2026-04-21 05:09 -11.89139 -51.44107 33945 ft 483 kts 317°
2026-04-21 05:10 -11.84058 -51.48545 33946 ft 483 kts 317°
2026-04-21 05:10 -11.78947 -51.53007 33946 ft 483 kts 317°
2026-04-21 05:11 -11.73833 -51.57469 33944 ft 483 kts 317°
2026-04-21 05:11 -11.68722 -51.61927 33943 ft 483 kts 317°
2026-04-21 05:12 -11.63614 -51.66379 33943 ft 483 kts 317°
2026-04-21 05:12 -11.58507 -51.70829 33951 ft 483 kts 317°
2026-04-21 05:13 -11.53400 -51.75277 33945 ft 483 kts 317°
2026-04-21 05:13 -11.48289 -51.79725 33945 ft 482 kts 317°
2026-04-21 05:14 -11.43219 -51.84136 33943 ft 482 kts 317°
2026-04-21 05:14 -11.38110 -51.88578 33947 ft 482 kts 317°
2026-04-21 05:15 -11.33010 -51.93011 33944 ft 481 kts 317°
2026-04-21 05:15 -11.27962 -51.97493 33935 ft 480 kts 311°
2026-04-21 05:16 -11.23404 -52.02457 33945 ft 480 kts 311°
2026-04-21 05:16 -11.18895 -52.07399 33946 ft 479 kts 311°
2026-04-21 05:17 -11.14358 -52.12375 33946 ft 479 kts 311°
2026-04-21 05:17 -11.09816 -52.17352 33943 ft 479 kts 311°
2026-04-21 05:18 -11.05283 -52.22318 33946 ft 478 kts 311°
2026-04-21 05:18 -11.00754 -52.27277 33946 ft 478 kts 311°
2026-04-21 05:19 -10.96227 -52.32231 33946 ft 478 kts 311°
2026-04-21 05:19 -10.91730 -52.37150 33945 ft 478 kts 311°
2026-04-21 05:20 -10.87206 -52.42097 33946 ft 477 kts 311°
2026-04-21 05:20 -10.82683 -52.47040 33950 ft 477 kts 311°
2026-04-21 05:21 -10.78161 -52.51979 33949 ft 477 kts 311°
2026-04-21 05:21 -10.73635 -52.56921 33949 ft 477 kts 311°
2026-04-21 05:22 -10.69110 -52.61859 33948 ft 477 kts 311°
2026-04-21 05:22 -10.64611 -52.66766 33948 ft 477 kts 311°
2026-04-21 05:23 -10.60087 -52.71698 33946 ft 477 kts 311°
2026-04-21 05:23 -10.55567 -52.76624 33945 ft 477 kts 311°
2026-04-21 05:24 -10.51038 -52.81557 33947 ft 476 kts 312°
2026-04-21 05:24 -10.46517 -52.86480 33946 ft 476 kts 312°
2026-04-21 05:25 -10.41995 -52.91400 33947 ft 476 kts 312°
2026-04-21 05:25 -10.37472 -52.96321 33950 ft 476 kts 312°
2026-04-21 05:26 -10.32953 -53.01234 33949 ft 476 kts 312°
2026-04-21 05:26 -10.28432 -53.06147 33948 ft 475 kts 312°
2026-04-21 05:27 -10.23950 -53.11016 33954 ft 475 kts 312°
2026-04-21 05:27 -10.19435 -53.15918 33950 ft 475 kts 312°
2026-04-21 05:28 -10.14922 -53.20816 33951 ft 475 kts 312°
2026-04-21 05:28 -10.10406 -53.25715 33949 ft 474 kts 312°
2026-04-21 05:29 -10.05894 -53.30608 33953 ft 474 kts 312°
2026-04-21 05:29 -10.01388 -53.35492 33951 ft 474 kts 313°
2026-04-21 05:30 -9.96885 -53.40370 33956 ft 474 kts 313°
2026-04-21 05:30 -9.92406 -53.45221 33958 ft 473 kts 313°
2026-04-21 05:31 -9.87900 -53.50098 33960 ft 473 kts 313°
2026-04-21 05:31 -9.83394 -53.54974 33956 ft 473 kts 313°
2026-04-21 05:32 -9.78893 -53.59842 33952 ft 473 kts 313°
2026-04-21 05:32 -9.74389 -53.64711 33954 ft 473 kts 313°
2026-04-21 05:33 -9.69880 -53.69583 33955 ft 473 kts 313°
2026-04-21 05:33 -9.65408 -53.74414 33952 ft 473 kts 313°
2026-04-21 05:34 -9.60898 -53.79283 33956 ft 473 kts 313°
2026-04-21 05:34 -9.56392 -53.84148 33951 ft 473 kts 313°
2026-04-21 05:35 -9.51886 -53.89008 33951 ft 473 kts 313°
2026-04-21 05:35 -9.47365 -53.93883 33956 ft 474 kts 313°
2026-04-21 05:36 -9.42881 -53.98716 33952 ft 474 kts 313°
2026-04-21 05:36 -9.38365 -54.03583 33951 ft 474 kts 313°
2026-04-21 05:37 -9.33851 -54.08445 33955 ft 474 kts 313°
2026-04-21 05:37 -9.29337 -54.13305 33952 ft 474 kts 313°
2026-04-21 05:38 -9.24820 -54.18165 33952 ft 474 kts 314°
2026-04-21 05:38 -9.20308 -54.23020 33957 ft 474 kts 313°
2026-04-21 05:39 -9.15777 -54.27891 33954 ft 474 kts 314°
2026-04-21 05:39 -9.11282 -54.32723 33957 ft 474 kts 314°
2026-04-21 05:40 -9.06756 -54.37587 33958 ft 474 kts 314°
2026-04-21 05:40 -9.02237 -54.42440 33958 ft 474 kts 314°
2026-04-21 05:41 -8.97715 -54.47294 33963 ft 474 kts 314°
2026-04-21 05:41 -8.93196 -54.52145 33959 ft 474 kts 314°
2026-04-21 05:42 -8.88665 -54.57006 33961 ft 475 kts 314°
2026-04-21 05:42 -8.84162 -54.61835 33960 ft 474 kts 314°
2026-04-21 05:43 -8.79635 -54.66687 33959 ft 474 kts 314°
2026-04-21 05:43 -8.75103 -54.71544 33958 ft 474 kts 314°
2026-04-21 05:44 -8.70574 -54.76395 33957 ft 474 kts 314°
2026-04-21 05:44 -8.66041 -54.81250 33953 ft 474 kts 314°
2026-04-21 05:45 -8.62273 -54.85282 33954 ft 475 kts 314°
2026-04-21 05:45 -8.57728 -54.90145 33952 ft 475 kts 314°
2026-04-21 05:46 -8.53193 -54.94996 33949 ft 475 kts 314°
2026-04-21 05:46 -8.48659 -54.99844 33954 ft 475 kts 314°
2026-04-21 05:47 -8.44121 -55.04694 33947 ft 474 kts 314°
2026-04-21 05:47 -8.39589 -55.09536 33948 ft 474 kts 315°
2026-04-21 05:48 -8.35083 -55.14349 33946 ft 475 kts 315°
2026-04-21 05:48 -8.30543 -55.19196 33948 ft 475 kts 315°
2026-04-21 05:49 -8.26004 -55.24040 33948 ft 475 kts 315°
2026-04-21 05:49 -8.21464 -55.28885 33943 ft 475 kts 315°
2026-04-21 05:50 -8.16924 -55.33727 33947 ft 475 kts 315°
2026-04-21 05:50 -8.12385 -55.38565 33948 ft 475 kts 315°
2026-04-21 05:51 -8.07845 -55.43403 33945 ft 475 kts 315°
2026-04-21 05:51 -8.03332 -55.48212 33948 ft 475 kts 315°
2026-04-21 05:52 -7.98791 -55.53048 33945 ft 475 kts 315°
2026-04-21 05:52 -7.94247 -55.57886 33947 ft 475 kts 315°
2026-04-21 05:53 -7.89701 -55.62724 33943 ft 475 kts 315°
2026-04-21 05:53 -7.85157 -55.67559 33944 ft 475 kts 315°
2026-04-21 05:54 -7.80606 -55.72399 33941 ft 475 kts 315°
2026-04-21 05:54 -7.76052 -55.77241 33946 ft 476 kts 315°
2026-04-21 05:55 -7.71498 -55.82081 33949 ft 476 kts 315°
2026-04-21 05:55 -7.66940 -55.86924 33946 ft 476 kts 315°
2026-04-21 05:56 -7.62380 -55.91767 33949 ft 476 kts 315°
2026-04-21 05:56 -7.57845 -55.96583 33942 ft 476 kts 315°
2026-04-21 05:57 -7.53274 -56.01435 33943 ft 477 kts 315°
2026-04-21 05:57 -7.48705 -56.06284 33941 ft 477 kts 315°
2026-04-21 05:58 -7.44133 -56.11133 33936 ft 477 kts 315°
2026-04-21 05:58 -7.39556 -56.15988 33940 ft 478 kts 315°
2026-04-21 05:59 -7.34971 -56.20849 33940 ft 478 kts 315°
2026-04-21 06:00 -7.28089 -56.28065 33932 ft 477 kts 321°
2026-04-21 06:00 -7.22920 -56.32233 33942 ft 476 kts 323°
2026-04-21 06:01 -7.17725 -56.36381 33944 ft 476 kts 323°
2026-04-21 06:01 -7.12531 -56.40520 33937 ft 476 kts 323°
2026-04-21 06:02 -7.07336 -56.44659 33939 ft 476 kts 323°
2026-04-21 06:02 -7.02169 -56.48774 33937 ft 476 kts 323°
2026-04-21 06:03 -6.96979 -56.52907 33941 ft 476 kts 323°
2026-04-21 06:03 -6.91779 -56.57046 33942 ft 476 kts 323°
2026-04-21 06:04 -6.86590 -56.61176 33934 ft 475 kts 323°
2026-04-21 06:04 -6.81404 -56.65301 33934 ft 475 kts 323°
2026-04-21 06:05 -6.76215 -56.69428 33939 ft 475 kts 324°
2026-04-21 06:05 -6.71029 -56.73552 33939 ft 475 kts 324°
2026-04-21 06:06 -6.65846 -56.77671 33934 ft 475 kts 324°
2026-04-21 06:06 -6.60694 -56.81765 33934 ft 475 kts 324°
2026-04-21 06:07 -6.55515 -56.85879 33930 ft 475 kts 324°
2026-04-21 06:07 -6.50329 -56.89998 33931 ft 474 kts 324°
2026-04-21 06:08 -6.45148 -56.94112 33931 ft 474 kts 324°
2026-04-21 06:08 -6.39970 -56.98222 33933 ft 474 kts 324°
2026-04-21 06:09 -6.34794 -57.02331 33931 ft 474 kts 324°
2026-04-21 06:09 -6.29608 -57.06445 33936 ft 475 kts 324°
2026-04-21 06:10 -6.24417 -57.10562 33931 ft 475 kts 324°
2026-04-21 06:10 -6.19223 -57.14681 33931 ft 476 kts 324°
2026-04-21 06:11 -6.14015 -57.18810 33924 ft 476 kts 324°
2026-04-21 06:11 -6.08847 -57.22905 33929 ft 477 kts 324°
2026-04-21 06:12 -6.03630 -57.27039 33930 ft 477 kts 324°
2026-04-21 06:12 -5.98419 -57.31167 33927 ft 476 kts 324°
2026-04-21 06:13 -5.93218 -57.35286 33926 ft 476 kts 324°
2026-04-21 06:13 -5.88017 -57.39404 33930 ft 475 kts 324°
2026-04-21 06:14 -5.82819 -57.43519 33931 ft 475 kts 324°
2026-04-21 06:14 -5.77631 -57.47624 33932 ft 475 kts 324°
2026-04-21 06:15 -5.72442 -57.51730 33920 ft 474 kts 324°
2026-04-21 06:15 -5.67260 -57.55829 33921 ft 474 kts 324°
2026-04-21 06:16 -5.62080 -57.59925 33929 ft 474 kts 324°
2026-04-21 06:16 -5.56895 -57.64024 33926 ft 474 kts 324°
2026-04-21 06:17 -5.51748 -57.68092 33932 ft 474 kts 323°
2026-04-21 06:17 -5.46572 -57.72184 33926 ft 474 kts 323°
2026-04-21 06:18 -5.41391 -57.76277 33923 ft 474 kts 323°
2026-04-21 06:18 -5.36211 -57.80368 33932 ft 474 kts 323°
2026-04-21 06:19 -5.31023 -57.84465 33927 ft 474 kts 323°
2026-04-21 06:19 -5.25831 -57.88565 33924 ft 474 kts 323°
2026-04-21 06:20 -5.20680 -57.92631 33918 ft 474 kts 323°
2026-04-21 06:20 -5.15490 -57.96727 33927 ft 475 kts 323°
2026-04-21 06:21 -5.10291 -58.00830 33923 ft 475 kts 323°
2026-04-21 06:21 -5.05083 -58.04938 33932 ft 476 kts 323°
2026-04-21 06:22 -4.99865 -58.09053 33922 ft 477 kts 323°
2026-04-21 06:22 -4.94678 -58.13144 33926 ft 477 kts 323°
2026-04-21 06:23 -4.89456 -58.17260 33928 ft 477 kts 323°
2026-04-21 06:23 -4.84229 -58.21380 33917 ft 477 kts 323°
2026-04-21 06:24 -4.79006 -58.25497 33924 ft 478 kts 323°
2026-04-21 06:24 -4.73770 -58.29622 33937 ft 478 kts 323°
2026-04-21 06:25 -4.68539 -58.33743 33918 ft 479 kts 323°
2026-04-21 06:25 -4.63294 -58.37875 33930 ft 479 kts 323°
2026-04-21 06:26 -4.58095 -58.41968 33919 ft 478 kts 323°
2026-04-21 06:26 -4.52867 -58.46084 33923 ft 477 kts 323°
2026-04-21 06:27 -4.47648 -58.50192 33935 ft 477 kts 323°
2026-04-21 06:27 -4.42432 -58.54297 33917 ft 476 kts 323°
2026-04-21 06:28 -4.37221 -58.58398 33920 ft 476 kts 323°
2026-04-21 06:28 -4.32008 -58.62499 33927 ft 476 kts 323°
2026-04-21 06:29 -4.26805 -58.66591 33929 ft 475 kts 323°
2026-04-21 06:29 -4.21644 -58.70650 33922 ft 474 kts 323°
2026-04-21 06:30 -4.16453 -58.74731 33925 ft 474 kts 323°
2026-04-21 06:30 -4.11263 -58.78812 33925 ft 473 kts 323°
2026-04-21 06:31 -4.06082 -58.82884 33922 ft 473 kts 323°
2026-04-21 06:31 -4.00912 -58.86947 33917 ft 472 kts 323°
2026-04-21 06:32 -3.95746 -58.91006 33926 ft 472 kts 323°
2026-04-21 06:32 -3.90582 -58.95064 33920 ft 471 kts 323°
2026-04-21 06:33 -3.85447 -58.99097 33924 ft 471 kts 323°
2026-04-21 06:33 -3.80286 -59.03151 33917 ft 471 kts 323°
2026-04-21 06:34 -3.75134 -59.07197 33917 ft 471 kts 323°
2026-04-21 06:34 -3.69977 -59.11246 33922 ft 470 kts 323°
2026-04-21 06:35 -3.64823 -59.15291 33927 ft 470 kts 324°
2026-04-21 06:35 -3.60547 -59.18648 33924 ft 470 kts 324°
2026-04-21 06:36 -3.55398 -59.22689 33916 ft 470 kts 324°
2026-04-21 06:36 -3.49422 -59.27378 33927 ft 469 kts 324°
2026-04-21 06:37 -3.45119 -59.30755 33921 ft 469 kts 324°
2026-04-21 06:37 -3.40026 -59.34750 33920 ft 468 kts 324°
2026-04-21 06:38 -3.35074 -59.38987 33914 ft 468 kts 321°
2026-04-21 06:38 -3.30128 -59.43232 33920 ft 468 kts 321°
2026-04-21 06:39 -3.25174 -59.47474 33926 ft 468 kts 321°
2026-04-21 06:39 -3.20230 -59.51707 33922 ft 468 kts 321°
2026-04-21 06:40 -3.15278 -59.55946 33922 ft 468 kts 321°
2026-04-21 06:40 -3.10332 -59.60180 33917 ft 468 kts 321°
2026-04-21 06:41 -3.05376 -59.64421 33921 ft 469 kts 321°
2026-04-21 06:41 -3.00448 -59.68639 33922 ft 469 kts 322°
2026-04-21 06:42 -2.95488 -59.72883 33920 ft 469 kts 322°
2026-04-21 06:42 -2.90523 -59.77131 33917 ft 469 kts 321°
2026-04-21 06:43 -2.85562 -59.81375 33915 ft 469 kts 321°
2026-04-21 06:43 -2.80593 -59.85625 33923 ft 470 kts 321°
2026-04-21 06:44 -2.75617 -59.89880 33922 ft 470 kts 321°
2026-04-21 06:44 -2.70672 -59.94110 33917 ft 470 kts 321°
2026-04-21 06:45 -2.65691 -59.98368 33922 ft 470 kts 321°
2026-04-21 06:45 -2.60719 -60.02620 33923 ft 470 kts 321°
2026-04-21 06:46 -2.55745 -60.06871 33919 ft 470 kts 321°
2026-04-21 06:46 -2.50771 -60.11123 33922 ft 470 kts 321°
2026-04-21 06:47 -2.45791 -60.15379 33922 ft 470 kts 321°
2026-04-21 06:47 -2.40808 -60.19637 33927 ft 471 kts 321°
2026-04-21 06:48 -2.35830 -60.23892 33920 ft 470 kts 321°
2026-04-21 06:48 -2.30853 -60.28143 33919 ft 470 kts 321°
2026-04-21 06:49 -2.25915 -60.32363 33921 ft 470 kts 321°
2026-04-21 06:49 -2.20941 -60.36612 33919 ft 470 kts 321°
2026-04-21 06:50 -2.15959 -60.40867 33912 ft 470 kts 321°
2026-04-21 06:50 -2.10985 -60.45116 33919 ft 470 kts 321°
2026-04-21 06:51 -2.06011 -60.49363 33917 ft 470 kts 321°
2026-04-21 06:51 -2.01043 -60.53607 33915 ft 470 kts 321°
2026-04-21 06:52 -1.96108 -60.57821 33916 ft 469 kts 321°
2026-04-21 06:52 -1.91146 -60.62057 33915 ft 469 kts 321°
2026-04-21 06:53 -1.86185 -60.66293 33915 ft 469 kts 321°
2026-04-21 06:53 -1.81226 -60.70526 33915 ft 469 kts 321°
2026-04-21 06:54 -1.76260 -60.74765 33914 ft 469 kts 321°
2026-04-21 06:54 -1.71303 -60.78996 33911 ft 468 kts 321°
2026-04-21 06:55 -1.66344 -60.83229 33909 ft 468 kts 321°
2026-04-21 06:55 -1.61388 -60.87459 33913 ft 468 kts 321°
2026-04-21 06:56 -1.56436 -60.91685 33911 ft 468 kts 321°
2026-04-21 06:56 -1.51518 -60.95882 33912 ft 467 kts 321°
2026-04-21 06:57 -1.46572 -61.00101 33907 ft 467 kts 321°
2026-04-21 06:57 -1.41628 -61.04320 33907 ft 468 kts 321°
2026-04-21 06:58 -1.36670 -61.08550 33906 ft 468 kts 321°
2026-04-21 06:58 -1.31711 -61.12782 33907 ft 469 kts 321°
2026-04-21 06:59 -1.26743 -61.17020 33907 ft 469 kts 321°
2026-04-21 06:59 -1.21773 -61.21259 33909 ft 469 kts 321°
2026-04-21 07:00 -1.16803 -61.25499 33902 ft 470 kts 321°
2026-04-21 07:00 -1.11858 -61.29717 33903 ft 470 kts 321°
2026-04-21 07:01 -1.06877 -61.33965 33905 ft 470 kts 321°
2026-04-21 07:01 -0.99422 -61.40323 33902 ft 469 kts 321°
2026-04-21 07:02 -0.94454 -61.44560 33903 ft 468 kts 321°
2026-04-21 07:02 -0.89500 -61.48785 33903 ft 467 kts 321°
2026-04-21 07:03 -0.84593 -61.52970 33904 ft 467 kts 321°
2026-04-21 07:03 -0.79648 -61.57186 33905 ft 466 kts 321°
2026-04-21 07:04 -0.74714 -61.61393 33903 ft 465 kts 321°
2026-04-21 07:04 -0.69792 -61.65590 33899 ft 466 kts 321°
2026-04-21 07:05 -0.64852 -61.69802 33910 ft 467 kts 321°
2026-04-21 07:05 -0.59901 -61.74024 33899 ft 468 kts 321°
2026-04-21 07:06 -0.54974 -61.78225 33895 ft 469 kts 321°
2026-04-21 07:06 -0.49999 -61.82466 33899 ft 470 kts 321°
2026-04-21 07:07 -0.45017 -61.86714 33901 ft 471 kts 321°
2026-04-21 07:07 -0.40019 -61.90975 33906 ft 473 kts 321°
2026-04-21 07:08 -0.35012 -61.95244 33900 ft 474 kts 321°
2026-04-21 07:08 -0.30000 -61.99516 33897 ft 473 kts 321°
2026-04-21 07:09 -0.25035 -62.03749 33899 ft 472 kts 321°
2026-04-21 07:09 -0.20034 -62.08012 33900 ft 471 kts 321°
2026-04-21 07:10 -0.15053 -62.12260 33898 ft 471 kts 321°
2026-04-21 07:10 -0.10069 -62.16508 33897 ft 470 kts 321°
2026-04-21 07:11 -0.05095 -62.20748 33898 ft 470 kts 321°
2026-04-21 07:11 -0.00118 -62.24991 33899 ft 470 kts 321°
2026-04-21 07:12 0.04820 -62.29201 33896 ft 469 kts 321°
2026-04-21 07:12 0.09788 -62.33436 33897 ft 470 kts 321°
2026-04-21 07:13 0.14765 -62.37679 33899 ft 470 kts 321°
2026-04-21 07:13 0.19740 -62.41921 33898 ft 470 kts 321°
2026-04-21 07:14 0.24727 -62.46172 33903 ft 470 kts 321°
2026-04-21 07:14 0.29706 -62.50417 33900 ft 471 kts 321°
2026-04-21 07:15 0.34695 -62.54670 33898 ft 471 kts 321°
2026-04-21 07:15 0.39648 -62.58892 33899 ft 471 kts 321°
2026-04-21 07:16 0.44632 -62.63142 33897 ft 471 kts 321°
2026-04-21 07:16 0.49626 -62.67400 33899 ft 472 kts 321°
2026-04-21 07:17 0.54624 -62.71661 33900 ft 472 kts 321°
2026-04-21 07:17 0.59623 -62.75923 33900 ft 473 kts 321°
2026-04-21 07:18 0.64629 -62.80191 33901 ft 473 kts 321°
2026-04-21 07:18 0.69644 -62.84468 33900 ft 473 kts 321°
2026-04-21 07:19 0.74630 -62.88719 33899 ft 474 kts 321°
2026-04-21 07:19 0.79646 -62.92997 33904 ft 474 kts 321°
2026-04-21 07:20 0.84667 -62.97278 33904 ft 474 kts 321°
2026-04-21 07:20 0.89683 -63.01555 33901 ft 474 kts 321°
2026-04-21 07:21 0.94667 -63.05806 33905 ft 474 kts 321°
2026-04-21 07:21 0.99686 -63.10087 33908 ft 475 kts 321°
2026-04-21 07:22 1.04714 -63.14375 33910 ft 475 kts 321°
2026-04-21 07:22 1.09749 -63.18669 33916 ft 477 kts 321°
2026-04-21 07:23 1.14803 -63.22980 33916 ft 478 kts 321°
2026-04-21 07:23 1.19870 -63.27302 33916 ft 479 kts 321°
2026-04-21 07:24 1.24941 -63.31628 33912 ft 479 kts 321°
2026-04-21 07:24 1.30016 -63.35957 33910 ft 479 kts 321°
2026-04-21 07:25 1.35053 -63.40254 33906 ft 479 kts 321°
2026-04-21 07:25 1.40125 -63.44582 33908 ft 479 kts 321°
2026-04-21 07:26 1.45199 -63.48910 33909 ft 479 kts 321°
2026-04-21 07:26 1.50267 -63.53235 33904 ft 479 kts 321°
2026-04-21 07:27 1.54486 -63.56835 33908 ft 479 kts 321°
2026-04-21 07:27 1.59556 -63.61162 33906 ft 479 kts 321°
2026-04-21 07:28 1.64629 -63.65491 33911 ft 479 kts 321°
2026-04-21 07:28 1.69712 -63.69829 33912 ft 480 kts 321°
2026-04-21 07:29 1.74788 -63.74162 33923 ft 480 kts 321°
2026-04-21 07:29 1.79864 -63.78495 33923 ft 480 kts 321°
2026-04-21 07:30 1.84949 -63.82836 33931 ft 480 kts 321°
2026-04-21 07:30 1.90033 -63.87176 33930 ft 480 kts 320°
2026-04-21 07:31 1.95087 -63.91491 33937 ft 481 kts 320°
2026-04-21 07:31 2.00300 -63.95669 33938 ft 479 kts 328°
2026-04-21 07:32 2.05874 -63.99355 33939 ft 480 kts 328°
2026-04-21 07:32 2.11443 -64.03024 33940 ft 480 kts 328°
2026-04-21 07:33 2.16999 -64.06682 33946 ft 480 kts 328°
2026-04-21 07:33 2.22579 -64.10355 33946 ft 480 kts 328°
2026-04-21 07:34 2.28162 -64.14032 33942 ft 480 kts 328°
2026-04-21 07:34 2.33752 -64.17713 33946 ft 480 kts 328°
2026-04-21 07:35 2.39336 -64.21390 33949 ft 480 kts 328°
2026-04-21 07:35 2.44921 -64.25069 33950 ft 481 kts 328°
2026-04-21 07:36 2.50504 -64.28747 33945 ft 481 kts 328°
2026-04-21 07:36 2.56056 -64.32404 33957 ft 481 kts 328°
2026-04-21 07:37 2.61644 -64.36086 33953 ft 481 kts 327°
2026-04-21 07:37 2.67235 -64.39770 33945 ft 481 kts 327°
2026-04-21 07:38 2.72819 -64.43450 33950 ft 480 kts 327°
2026-04-21 07:38 2.78406 -64.47132 33948 ft 480 kts 327°
2026-04-21 07:39 2.83987 -64.50811 33944 ft 480 kts 327°
2026-04-21 07:39 2.89528 -64.54464 33941 ft 480 kts 327°
2026-04-21 07:40 2.95104 -64.58140 33944 ft 479 kts 327°
2026-04-21 07:40 3.00671 -64.61811 33936 ft 479 kts 327°
2026-04-21 07:41 3.06241 -64.65483 33939 ft 479 kts 327°
2026-04-21 07:41 3.11777 -64.69135 33946 ft 479 kts 327°
2026-04-21 07:42 3.17336 -64.72802 33945 ft 478 kts 327°
2026-04-21 07:42 3.22903 -64.76475 33945 ft 478 kts 327°
2026-04-21 07:43 3.28457 -64.80139 33950 ft 478 kts 327°
2026-04-21 07:43 3.34017 -64.83809 33947 ft 478 kts 327°
2026-04-21 07:44 3.39538 -64.87452 33944 ft 478 kts 327°
2026-04-21 07:44 3.45088 -64.91116 33949 ft 478 kts 327°
2026-04-21 07:45 3.50647 -64.94785 33953 ft 478 kts 327°
2026-04-21 07:45 3.56194 -64.98448 33947 ft 477 kts 327°
2026-04-21 07:46 3.61740 -65.02110 33961 ft 477 kts 327°
2026-04-21 07:46 3.67273 -65.05765 33967 ft 476 kts 327°
2026-04-21 07:47 3.72802 -65.09417 33965 ft 476 kts 327°
2026-04-21 07:47 3.78326 -65.13067 33972 ft 475 kts 327°
2026-04-21 07:48 3.83843 -65.16712 33974 ft 475 kts 327°
2026-04-21 07:48 3.89330 -65.20339 33979 ft 475 kts 327°
2026-04-21 07:49 3.94850 -65.23987 33982 ft 474 kts 327°
2026-04-21 07:49 4.00358 -65.27628 33986 ft 474 kts 327°
2026-04-21 07:50 4.05867 -65.31271 33987 ft 474 kts 327°
2026-04-21 07:50 4.11378 -65.34915 33988 ft 475 kts 327°
2026-04-21 07:51 4.16887 -65.38559 33980 ft 474 kts 327°
2026-04-21 07:51 4.22360 -65.42179 33977 ft 474 kts 327°
2026-04-21 07:52 4.27866 -65.45822 33979 ft 474 kts 327°
2026-04-21 07:52 4.33368 -65.49464 33980 ft 474 kts 327°
2026-04-21 07:53 4.38867 -65.53104 33965 ft 473 kts 327°
2026-04-21 07:53 4.44361 -65.56740 33964 ft 473 kts 327°
2026-04-21 07:54 4.49850 -65.60374 33951 ft 473 kts 327°
2026-04-21 07:54 4.55338 -65.64009 33949 ft 472 kts 327°
2026-04-21 07:55 4.60785 -65.67617 33941 ft 472 kts 327°
2026-04-21 07:55 4.66274 -65.71253 33936 ft 472 kts 327°
2026-04-21 07:56 4.71743 -65.74877 33948 ft 471 kts 327°
2026-04-21 07:56 4.77205 -65.78497 33929 ft 470 kts 327°
2026-04-21 07:57 4.82663 -65.82115 33929 ft 470 kts 327°
2026-04-21 07:57 4.88117 -65.85731 33926 ft 469 kts 327°
2026-04-21 07:58 4.93558 -65.89339 33918 ft 468 kts 327°
2026-04-21 07:58 4.98949 -65.92914 33922 ft 467 kts 327°
2026-04-21 07:59 5.04368 -65.96510 33919 ft 467 kts 327°
2026-04-21 07:59 5.09785 -66.00104 33922 ft 466 kts 326°
2026-04-21 08:00 5.15190 -66.03691 33921 ft 466 kts 326°
2026-04-21 08:00 5.20602 -66.07283 33923 ft 466 kts 326°
2026-04-21 08:01 5.26009 -66.10873 33928 ft 466 kts 326°
2026-04-21 08:02 5.34129 -66.16265 33932 ft 467 kts 326°
2026-04-21 08:02 5.39544 -66.19862 33931 ft 467 kts 326°
2026-04-21 08:03 5.44929 -66.23441 33935 ft 467 kts 326°
2026-04-21 08:03 5.50350 -66.27043 33946 ft 467 kts 326°
2026-04-21 08:04 5.55766 -66.30644 33952 ft 467 kts 326°
2026-04-21 08:04 5.61177 -66.34241 33952 ft 466 kts 326°
2026-04-21 08:05 5.66593 -66.37843 33948 ft 466 kts 326°
2026-04-21 08:05 5.71998 -66.41438 33956 ft 466 kts 326°
2026-04-21 08:06 5.77410 -66.45039 33955 ft 467 kts 326°
2026-04-21 08:06 5.82830 -66.48646 33954 ft 467 kts 326°
2026-04-21 08:07 5.88252 -66.52255 33956 ft 466 kts 326°
2026-04-21 08:07 5.93621 -66.55830 33946 ft 466 kts 326°
2026-04-21 08:08 5.99060 -66.59452 33948 ft 466 kts 326°
2026-04-21 08:08 6.04432 -66.63030 33933 ft 466 kts 326°
2026-04-21 08:09 6.09837 -66.66632 33938 ft 466 kts 326°
2026-04-21 08:09 6.15242 -66.70234 33931 ft 466 kts 326°
2026-04-21 08:10 6.20654 -66.73841 33923 ft 467 kts 326°
2026-04-21 08:10 6.26073 -66.77454 33922 ft 467 kts 326°
2026-04-21 08:11 6.31487 -66.81065 33917 ft 466 kts 326°
2026-04-21 08:11 6.36855 -66.84646 33915 ft 466 kts 326°
2026-04-21 08:12 6.42249 -66.88245 33909 ft 465 kts 326°
2026-04-21 08:12 6.47653 -66.91852 33904 ft 465 kts 326°
2026-04-21 08:13 6.53036 -66.95445 33903 ft 464 kts 326°
2026-04-21 08:13 6.58421 -66.99036 33905 ft 464 kts 326°
2026-04-21 08:14 6.63802 -67.02623 33900 ft 464 kts 326°
2026-04-21 08:14 6.69148 -67.06186 33902 ft 464 kts 326°
2026-04-21 08:15 6.74531 -67.09776 33901 ft 464 kts 325°
2026-04-21 08:15 6.79911 -67.13364 33900 ft 463 kts 325°
2026-04-21 08:16 6.85288 -67.16951 33898 ft 464 kts 325°
2026-04-21 08:16 6.90677 -67.20548 33901 ft 464 kts 325°
2026-04-21 08:17 6.96022 -67.24115 33901 ft 464 kts 325°
2026-04-21 08:17 7.01402 -67.27708 33898 ft 464 kts 325°
2026-04-21 08:18 7.06786 -67.31306 33899 ft 464 kts 325°
2026-04-21 08:18 7.11261 -67.34297 33901 ft 464 kts 325°
2026-04-21 08:19 7.16629 -67.37885 33902 ft 463 kts 325°
2026-04-21 08:19 7.22001 -67.41478 33902 ft 463 kts 325°
2026-04-21 08:20 7.27361 -67.45064 33901 ft 462 kts 325°
2026-04-21 08:20 7.32712 -67.48646 33898 ft 461 kts 325°
2026-04-21 08:21 7.38053 -67.52227 33904 ft 461 kts 325°
2026-04-21 08:21 7.43389 -67.55806 33903 ft 460 kts 325°
2026-04-21 08:22 7.48722 -67.59384 33910 ft 461 kts 325°
2026-04-21 08:22 7.54055 -67.62962 33905 ft 460 kts 325°
2026-04-21 08:23 7.59388 -67.66542 33905 ft 460 kts 325°
2026-04-21 08:23 7.64712 -67.70117 33907 ft 460 kts 325°
2026-04-21 08:24 7.70006 -67.73673 33904 ft 460 kts 325°
2026-04-21 08:24 7.75323 -67.77245 33905 ft 459 kts 325°
2026-04-21 08:25 7.80648 -67.80823 33910 ft 459 kts 325°
2026-04-21 08:25 7.85970 -67.84402 33908 ft 459 kts 325°
2026-04-21 08:26 7.91285 -67.87976 33908 ft 459 kts 325°
2026-04-21 08:26 7.96560 -67.91525 33909 ft 459 kts 325°
2026-04-21 08:27 8.01868 -67.95097 33907 ft 458 kts 325°
2026-04-21 08:27 8.07180 -67.98673 33911 ft 458 kts 325°
2026-04-21 08:28 8.12489 -68.02248 33914 ft 458 kts 325°
2026-04-21 08:28 8.17798 -68.05825 33907 ft 458 kts 325°
2026-04-21 08:29 8.23104 -68.09401 33907 ft 458 kts 325°
2026-04-21 08:29 8.28406 -68.12975 33911 ft 458 kts 325°
2026-04-21 08:30 8.33705 -68.16549 33908 ft 458 kts 325°
2026-04-21 08:30 8.38974 -68.20104 33912 ft 458 kts 325°
2026-04-21 08:31 8.44282 -68.23685 33915 ft 458 kts 325°
2026-04-21 08:31 8.49592 -68.27270 33916 ft 459 kts 325°
2026-04-21 08:32 8.54895 -68.30850 33918 ft 459 kts 325°
2026-04-21 08:32 8.60202 -68.34435 33919 ft 459 kts 325°
2026-04-21 08:33 8.65511 -68.38023 33913 ft 459 kts 325°
2026-04-21 08:33 8.70826 -68.41615 33917 ft 459 kts 325°
2026-04-21 08:34 8.76100 -68.45181 33918 ft 459 kts 325°
2026-04-21 08:34 8.81413 -68.48775 33917 ft 459 kts 324°
2026-04-21 08:35 8.86719 -68.52366 33915 ft 458 kts 324°
2026-04-21 08:35 8.92021 -68.55954 33920 ft 458 kts 324°
2026-04-21 08:36 8.97289 -68.59521 33920 ft 458 kts 324°
2026-04-21 08:36 9.02588 -68.63111 33919 ft 458 kts 324°
2026-04-21 08:37 9.07883 -68.66699 33920 ft 458 kts 324°
2026-04-21 08:37 9.13176 -68.70287 33920 ft 457 kts 324°
2026-04-21 08:38 9.18463 -68.73871 33923 ft 457 kts 324°
2026-04-21 08:38 9.23732 -68.77446 33922 ft 456 kts 324°
2026-04-21 08:39 9.29004 -68.81023 33922 ft 456 kts 324°
2026-04-21 08:39 9.34269 -68.84597 33925 ft 455 kts 324°
2026-04-21 08:40 9.39530 -68.88170 33922 ft 455 kts 324°
2026-04-21 08:40 9.44760 -68.91722 33929 ft 454 kts 324°
2026-04-21 08:41 9.50003 -68.95285 33933 ft 454 kts 324°
2026-04-21 08:41 9.55249 -68.98852 33937 ft 454 kts 324°
2026-04-21 08:42 9.60487 -69.02415 33944 ft 453 kts 324°
2026-04-21 08:42 9.65724 -69.05977 33956 ft 453 kts 324°
2026-04-21 08:43 9.70957 -69.09537 33962 ft 452 kts 324°
2026-04-21 08:43 9.76179 -69.13092 33968 ft 452 kts 324°
2026-04-21 08:44 9.81361 -69.16620 33976 ft 451 kts 324°
2026-04-21 08:44 9.86583 -69.20177 33983 ft 451 kts 324°
2026-04-21 08:45 9.91798 -69.23731 33988 ft 451 kts 324°
2026-04-21 08:45 9.97006 -69.27281 33998 ft 451 kts 324°
2026-04-21 08:46 10.02223 -69.30839 34004 ft 451 kts 324°
2026-04-21 08:46 10.07439 -69.34397 34014 ft 451 kts 324°
2026-04-21 08:47 10.12611 -69.37926 34013 ft 451 kts 324°
2026-04-21 08:47 10.17819 -69.41481 34015 ft 451 kts 324°
2026-04-21 08:48 10.23024 -69.45036 34013 ft 451 kts 324°
2026-04-21 08:48 10.28228 -69.48591 34013 ft 450 kts 324°
2026-04-21 08:49 10.33423 -69.52143 34013 ft 450 kts 324°
2026-04-21 08:49 10.38603 -69.55686 34012 ft 449 kts 323°
2026-04-21 08:50 10.43785 -69.59232 34012 ft 449 kts 323°
2026-04-21 08:50 10.48965 -69.62778 34014 ft 448 kts 323°
2026-04-21 08:51 10.54125 -69.66312 34017 ft 447 kts 323°
2026-04-21 08:51 10.59287 -69.69848 34009 ft 447 kts 323°
2026-04-21 08:52 10.64444 -69.73371 34006 ft 446 kts 323°
2026-04-21 08:52 10.69564 -69.76877 34006 ft 446 kts 323°
2026-04-21 08:53 10.74702 -69.80403 34010 ft 445 kts 323°
2026-04-21 08:53 10.79832 -69.83925 34003 ft 445 kts 323°
2026-04-21 08:54 10.84967 -69.87452 33997 ft 445 kts 323°
2026-04-21 08:54 10.90093 -69.90974 33997 ft 444 kts 323°
2026-04-21 08:55 10.95189 -69.94478 33990 ft 443 kts 323°
2026-04-21 08:55 11.00301 -69.97993 33992 ft 444 kts 323°
2026-04-21 08:56 11.05410 -70.01508 33985 ft 443 kts 323°
2026-04-21 08:56 11.10519 -70.05022 33976 ft 443 kts 323°
2026-04-21 08:57 11.15637 -70.08543 33972 ft 443 kts 323°
2026-04-21 08:57 11.20748 -70.12061 33971 ft 443 kts 323°
2026-04-21 08:58 11.25857 -70.15578 33966 ft 443 kts 323°
2026-04-21 08:58 11.30973 -70.19102 33965 ft 443 kts 323°
2026-04-21 08:59 11.36083 -70.22624 33960 ft 444 kts 323°
2026-04-21 08:59 11.41205 -70.26155 33957 ft 444 kts 323°
2026-04-21 09:00 11.46319 -70.29682 33958 ft 444 kts 323°
2026-04-21 09:00 11.51401 -70.33190 33961 ft 444 kts 323°
2026-04-21 09:01 11.56516 -70.36721 33962 ft 444 kts 323°
2026-04-21 09:01 11.61632 -70.40262 33963 ft 444 kts 323°
2026-04-21 09:02 11.66746 -70.43816 33962 ft 444 kts 323°
2026-04-21 09:02 11.71826 -70.47333 33962 ft 444 kts 323°
2026-04-21 09:03 11.79502 -70.52652 33965 ft 444 kts 323°
2026-04-21 09:03 11.84612 -70.56195 33962 ft 444 kts 323°
2026-04-21 09:04 11.89724 -70.59741 33961 ft 444 kts 323°
2026-04-21 09:04 11.94846 -70.63295 33965 ft 444 kts 323°
2026-04-21 09:05 11.99921 -70.66818 33972 ft 444 kts 323°
2026-04-21 09:05 12.05036 -70.70371 33963 ft 444 kts 323°
2026-04-21 09:06 12.10144 -70.73921 33971 ft 444 kts 323°
2026-04-21 09:06 12.15248 -70.77469 33969 ft 443 kts 323°
2026-04-21 09:07 12.20350 -70.81018 33972 ft 443 kts 323°
2026-04-21 09:07 12.25450 -70.84565 33972 ft 443 kts 323°
2026-04-21 09:08 12.30522 -70.88095 33969 ft 443 kts 323°
2026-04-21 09:08 12.34793 -70.91068 33972 ft 443 kts 323°
2026-04-21 09:09 12.40720 -70.95196 33972 ft 443 kts 323°
2026-04-21 09:09 12.44959 -70.98150 33971 ft 443 kts 323°
2026-04-21 09:10 12.50101 -71.01701 33975 ft 443 kts 325°
2026-04-21 09:10 12.55242 -71.05116 33972 ft 443 kts 325°
2026-04-21 09:11 12.60414 -71.08568 33973 ft 443 kts 325°
2026-04-21 09:11 12.65585 -71.12021 33976 ft 443 kts 325°
2026-04-21 09:12 12.70755 -71.15475 33975 ft 443 kts 325°
2026-04-21 09:12 12.75924 -71.18931 33978 ft 443 kts 325°
2026-04-21 09:13 12.81084 -71.22382 33974 ft 443 kts 325°
2026-04-21 09:13 12.86253 -71.25841 33979 ft 443 kts 325°
2026-04-21 09:14 12.91411 -71.29294 33977 ft 443 kts 325°
2026-04-21 09:14 12.96545 -71.32733 33976 ft 443 kts 325°
2026-04-21 09:15 13.01709 -71.36194 33981 ft 443 kts 325°
2026-04-21 09:15 13.06868 -71.39653 33980 ft 443 kts 325°
2026-04-21 09:16 13.12032 -71.43115 33982 ft 443 kts 325°
2026-04-21 09:16 13.17190 -71.46571 33979 ft 443 kts 325°
2026-04-21 09:17 13.22354 -71.50034 33980 ft 443 kts 325°
2026-04-21 09:17 13.27475 -71.53469 33982 ft 442 kts 325°
2026-04-21 09:18 13.32627 -71.56927 33982 ft 442 kts 325°
2026-04-21 09:18 13.37781 -71.60388 33983 ft 442 kts 325°
2026-04-21 09:19 13.42930 -71.63847 33981 ft 442 kts 325°
2026-04-21 09:19 13.48088 -71.67314 33982 ft 442 kts 325°
2026-04-21 09:20 13.53205 -71.70755 33982 ft 442 kts 325°
2026-04-21 09:20 13.58358 -71.74223 33983 ft 442 kts 325°
2026-04-21 09:21 13.63507 -71.77689 33983 ft 442 kts 325°
2026-04-21 09:21 13.68661 -71.81161 33985 ft 442 kts 325°
2026-04-21 09:22 13.73768 -71.84603 33983 ft 442 kts 325°
2026-04-21 09:22 13.78907 -71.88069 33987 ft 441 kts 325°
2026-04-21 09:23 13.84046 -71.91536 33984 ft 441 kts 325°
2026-04-21 09:23 13.89179 -71.94991 33985 ft 441 kts 325°
2026-04-21 09:24 13.94319 -71.98443 33984 ft 441 kts 325°
2026-04-21 09:24 13.99459 -72.01896 33990 ft 441 kts 325°
2026-04-21 09:25 14.04602 -72.05354 33986 ft 441 kts 325°
2026-04-21 09:25 14.09742 -72.08811 33990 ft 441 kts 325°
2026-04-21 09:26 14.14843 -72.12244 33987 ft 441 kts 325°
2026-04-21 09:26 14.19973 -72.15699 33989 ft 440 kts 325°
2026-04-21 09:27 14.25103 -72.19155 33989 ft 440 kts 325°
2026-04-21 09:27 14.30226 -72.22609 33989 ft 440 kts 325°
2026-04-21 09:28 14.35343 -72.26088 33992 ft 440 kts 324°
2026-04-21 09:28 14.40449 -72.29579 33991 ft 440 kts 324°
2026-04-21 09:29 14.45550 -72.33068 33991 ft 439 kts 324°
2026-04-21 09:29 14.50625 -72.36542 33992 ft 439 kts 324°
2026-04-21 09:30 14.55722 -72.40032 33995 ft 439 kts 324°
2026-04-21 09:30 14.60820 -72.43524 33994 ft 439 kts 324°
2026-04-21 09:31 14.65923 -72.47006 33990 ft 439 kts 324°
2026-04-21 09:31 14.70986 -72.50462 33994 ft 439 kts 324°
2026-04-21 09:32 14.76079 -72.53940 33993 ft 439 kts 324°
2026-04-21 09:32 14.81170 -72.57420 33994 ft 438 kts 324°
2026-04-21 09:33 14.86256 -72.60898 33990 ft 438 kts 324°
2026-04-21 09:33 14.91339 -72.64376 33992 ft 437 kts 324°
2026-04-21 09:34 14.96411 -72.67848 33998 ft 437 kts 324°
2026-04-21 09:34 15.01484 -72.71323 33997 ft 437 kts 324°
2026-04-21 09:35 15.06510 -72.74768 33997 ft 436 kts 324°
2026-04-21 09:35 15.11580 -72.78245 33997 ft 436 kts 324°
2026-04-21 09:36 15.16644 -72.81720 33996 ft 436 kts 324°
2026-04-21 09:36 15.21706 -72.85196 34001 ft 436 kts 324°
2026-04-21 09:37 15.26758 -72.88667 34000 ft 436 kts 324°
2026-04-21 09:37 15.31775 -72.92115 33999 ft 435 kts 324°
2026-04-21 09:38 15.36822 -72.95586 34002 ft 435 kts 324°
2026-04-21 09:38 15.41871 -72.99060 34004 ft 435 kts 324°
2026-04-21 09:39 15.46903 -73.02525 34003 ft 434 kts 324°
2026-04-21 09:39 15.51942 -73.05996 33999 ft 434 kts 324°
2026-04-21 09:40 15.56977 -73.09461 34001 ft 434 kts 324°
2026-04-21 09:40 15.61977 -73.12900 34004 ft 434 kts 324°
2026-04-21 09:41 15.67016 -73.16367 34009 ft 434 kts 324°
2026-04-21 09:41 15.72048 -73.19832 34006 ft 434 kts 324°
2026-04-21 09:42 15.77075 -73.23295 34006 ft 434 kts 324°
2026-04-21 09:42 15.82102 -73.26761 34003 ft 433 kts 324°
2026-04-21 09:43 15.87130 -73.30229 34002 ft 433 kts 324°
2026-04-21 09:43 15.92151 -73.33695 34003 ft 433 kts 323°
2026-04-21 09:44 15.97171 -73.37162 34003 ft 433 kts 323°
2026-04-21 09:44 16.02152 -73.40604 34006 ft 432 kts 323°
2026-04-21 09:45 16.07158 -73.44065 34005 ft 432 kts 323°
2026-04-21 09:45 16.12160 -73.47527 34009 ft 431 kts 323°
2026-04-21 09:46 16.17157 -73.50986 34010 ft 431 kts 323°
2026-04-21 09:46 16.22146 -73.54442 34010 ft 431 kts 323°
2026-04-21 09:47 16.27136 -73.57901 34010 ft 430 kts 323°
2026-04-21 09:47 16.32121 -73.61358 34010 ft 430 kts 323°
2026-04-21 09:48 16.37101 -73.64804 34011 ft 430 kts 323°
2026-04-21 09:48 16.42050 -73.68212 34008 ft 429 kts 323°
2026-04-21 09:49 16.47027 -73.71642 34013 ft 429 kts 323°
2026-04-21 09:49 16.51998 -73.75070 34010 ft 428 kts 323°
2026-04-21 09:50 16.56961 -73.78495 34014 ft 427 kts 323°
2026-04-21 09:50 16.61910 -73.81912 34014 ft 426 kts 323°
2026-04-21 09:51 16.66858 -73.85331 34018 ft 426 kts 323°
2026-04-21 09:51 16.71799 -73.88747 34015 ft 425 kts 323°
2026-04-21 09:52 16.76731 -73.92159 34016 ft 425 kts 323°
2026-04-21 09:52 16.81663 -73.95573 34020 ft 425 kts 323°
2026-04-21 09:53 16.86557 -73.98963 34017 ft 424 kts 323°
2026-04-21 09:53 16.91474 -74.02372 34016 ft 424 kts 323°
2026-04-21 09:54 16.96393 -74.05783 34019 ft 424 kts 323°
2026-04-21 09:54 17.01306 -74.09193 34020 ft 423 kts 323°
2026-04-21 09:55 17.06210 -74.12599 34019 ft 423 kts 323°
2026-04-21 09:55 17.11115 -74.16007 34020 ft 423 kts 323°
2026-04-21 09:56 17.15988 -74.19396 34019 ft 423 kts 323°
2026-04-21 09:56 17.20886 -74.22804 34018 ft 423 kts 323°
2026-04-21 09:57 17.25780 -74.26211 34018 ft 422 kts 323°
2026-04-21 09:57 17.30672 -74.29620 34020 ft 422 kts 323°
2026-04-21 09:58 17.35560 -74.33027 34018 ft 422 kts 323°
2026-04-21 09:58 17.40452 -74.36440 34018 ft 422 kts 323°
2026-04-21 09:59 17.45341 -74.39852 34020 ft 422 kts 323°
2026-04-21 09:59 17.50221 -74.43262 34020 ft 422 kts 323°
2026-04-21 10:00 17.54283 -74.46100 34022 ft 422 kts 323°
2026-04-21 10:00 17.59958 -74.50070 34020 ft 422 kts 323°
2026-04-21 10:01 17.64055 -74.52937 34022 ft 422 kts 323°
2026-04-21 10:01 17.68907 -74.56335 34024 ft 422 kts 323°
2026-04-21 10:02 17.76225 -74.61464 34026 ft 421 kts 323°
2026-04-21 10:03 17.81096 -74.64881 34029 ft 421 kts 323°
2026-04-21 10:03 17.85969 -74.68301 34028 ft 421 kts 323°
2026-04-21 10:04 17.90843 -74.71725 34027 ft 421 kts 323°
2026-04-21 10:04 17.95674 -74.75120 34025 ft 420 kts 323°
2026-04-21 10:05 18.00542 -74.78544 34032 ft 420 kts 323°
2026-04-21 10:05 18.05393 -74.81959 34036 ft 420 kts 323°
2026-04-21 10:06 18.10253 -74.85381 34034 ft 420 kts 323°
2026-04-21 10:06 18.15117 -74.88809 34028 ft 420 kts 322°
2026-04-21 10:07 18.19942 -74.92212 34031 ft 420 kts 322°
2026-04-21 10:07 18.24791 -74.95634 34033 ft 420 kts 322°
2026-04-21 10:08 18.29643 -74.99060 34031 ft 419 kts 322°
2026-04-21 10:08 18.34485 -75.02482 34038 ft 419 kts 322°
2026-04-21 10:09 18.39329 -75.05907 34036 ft 419 kts 322°
2026-04-21 10:09 18.44171 -75.09333 34035 ft 419 kts 322°
2026-04-21 10:10 18.49002 -75.12754 34034 ft 419 kts 322°
2026-04-21 10:10 18.53832 -75.16176 34035 ft 418 kts 322°
2026-04-21 10:11 18.58834 -75.19268 34038 ft 421 kts 328°
2026-04-21 10:11 18.63979 -75.22208 34036 ft 420 kts 327°
2026-04-21 10:12 18.69103 -75.25176 34035 ft 420 kts 327°
2026-04-21 10:12 18.74216 -75.28145 34039 ft 419 kts 327°
2026-04-21 10:13 18.79329 -75.31115 34040 ft 419 kts 327°
2026-04-21 10:13 18.84427 -75.34079 34039 ft 418 kts 327°
2026-04-21 10:14 18.89523 -75.37044 34039 ft 418 kts 327°
2026-04-21 10:14 18.94609 -75.40005 34037 ft 417 kts 327°
2026-04-21 10:15 18.99689 -75.42965 34036 ft 416 kts 327°
2026-04-21 10:15 19.04760 -75.45922 34038 ft 416 kts 327°
2026-04-21 10:16 19.09825 -75.48877 34038 ft 416 kts 327°
2026-04-21 10:16 19.14858 -75.51815 34033 ft 415 kts 327°
2026-04-21 10:17 19.19922 -75.54774 34031 ft 415 kts 327°
2026-04-21 10:17 19.24973 -75.57728 34032 ft 414 kts 327°
2026-04-21 10:18 19.30021 -75.60682 34035 ft 414 kts 327°
2026-04-21 10:18 19.35072 -75.63639 34037 ft 414 kts 327°
2026-04-21 10:19 19.40110 -75.66591 34031 ft 413 kts 327°
2026-04-21 10:19 19.45143 -75.69542 34034 ft 413 kts 327°
2026-04-21 10:20 19.50142 -75.72475 34032 ft 413 kts 327°
2026-04-21 10:20 19.55166 -75.75426 34039 ft 412 kts 327°
2026-04-21 10:21 19.60188 -75.78376 34035 ft 412 kts 327°
2026-04-21 10:21 19.65210 -75.81330 34040 ft 412 kts 327°
2026-04-21 10:22 19.70228 -75.84283 34041 ft 412 kts 327°
2026-04-21 10:22 19.75198 -75.87210 34048 ft 411 kts 327°
2026-04-21 10:23 19.80210 -75.90163 34049 ft 411 kts 327°
2026-04-21 10:23 19.85201 -75.93106 34049 ft 410 kts 327°
2026-04-21 10:24 19.90198 -75.96056 34052 ft 410 kts 327°
2026-04-21 10:24 19.95183 -75.99000 34050 ft 410 kts 327°
2026-04-21 10:25 20.00157 -76.01939 34066 ft 408 kts 327°
2026-04-21 10:25 20.05093 -76.04859 34051 ft 408 kts 326°
2026-04-21 10:26 20.10086 -76.07815 34056 ft 408 kts 327°
2026-04-21 10:26 20.15006 -76.10729 34060 ft 407 kts 326°
2026-04-21 10:27 20.19953 -76.13661 34065 ft 407 kts 326°
2026-04-21 10:27 20.24891 -76.16591 34069 ft 406 kts 326°
2026-04-21 10:28 20.29831 -76.19523 34069 ft 406 kts 326°
2026-04-21 10:28 20.34765 -76.22454 34066 ft 406 kts 326°
2026-04-21 10:29 20.39696 -76.25386 34067 ft 406 kts 326°
2026-04-21 10:29 20.44627 -76.28319 34054 ft 405 kts 326°
2026-04-21 10:30 20.49549 -76.31250 34056 ft 405 kts 326°
2026-04-21 10:30 20.54470 -76.34183 34061 ft 405 kts 326°
2026-04-21 10:31 20.59360 -76.37098 34054 ft 405 kts 326°
2026-04-21 10:31 20.64273 -76.40030 34057 ft 405 kts 326°
2026-04-21 10:32 20.69185 -76.42963 34054 ft 404 kts 326°
2026-04-21 10:32 20.74101 -76.45901 34055 ft 404 kts 326°
2026-04-21 10:33 20.79011 -76.48837 34054 ft 404 kts 326°
2026-04-21 10:33 20.83917 -76.51773 34054 ft 404 kts 326°
2026-04-21 10:34 20.88781 -76.54687 34063 ft 404 kts 326°
2026-04-21 10:34 20.93679 -76.57623 34060 ft 403 kts 326°
2026-04-21 10:35 20.98570 -76.60557 34063 ft 403 kts 326°
2026-04-21 10:35 21.03456 -76.63490 34070 ft 402 kts 326°
2026-04-21 10:36 21.08340 -76.66424 34064 ft 402 kts 326°
2026-04-21 10:36 21.13221 -76.69358 34069 ft 402 kts 326°
2026-04-21 10:37 21.18103 -76.72295 34068 ft 402 kts 326°
2026-04-21 10:37 21.22979 -76.75230 34071 ft 402 kts 326°
2026-04-21 10:38 21.27818 -76.78146 34110 ft 401 kts 323°
2026-04-21 10:38 21.32648 -76.81058 34076 ft 397 kts 324°
2026-04-21 10:39 21.37456 -76.83962 34065 ft 396 kts 324°
2026-04-21 10:39 21.42263 -76.86865 34066 ft 396 kts 324°
2026-04-21 10:40 21.47066 -76.89767 34066 ft 396 kts 324°
2026-04-21 10:40 21.51868 -76.92672 34071 ft 396 kts 323°
2026-04-21 10:41 21.56676 -76.95581 34070 ft 396 kts 323°
2026-04-21 10:41 21.61473 -76.98486 34067 ft 395 kts 323°
2026-04-21 10:42 21.66264 -77.01391 34075 ft 395 kts 323°
2026-04-21 10:42 21.71054 -77.04296 34069 ft 395 kts 323°
2026-04-21 10:43 21.75811 -77.07182 34071 ft 395 kts 323°
2026-04-21 10:43 21.80596 -77.10086 34071 ft 395 kts 323°
2026-04-21 10:44 21.85381 -77.12992 34072 ft 395 kts 323°
2026-04-21 10:44 21.90167 -77.15900 34075 ft 394 kts 323°
2026-04-21 10:45 21.94432 -77.18494 34076 ft 394 kts 323°
2026-04-21 10:45 21.99207 -77.21399 34079 ft 394 kts 323°
2026-04-21 10:46 22.03979 -77.24306 34078 ft 393 kts 323°
2026-04-21 10:46 22.08742 -77.27209 34078 ft 393 kts 323°
2026-04-21 10:47 22.13475 -77.30096 34083 ft 393 kts 323°
2026-04-21 10:47 22.18244 -77.33010 34081 ft 393 kts 323°
2026-04-21 10:48 22.23002 -77.35920 34085 ft 393 kts 323°
2026-04-21 10:48 22.27756 -77.38831 34082 ft 392 kts 323°
2026-04-21 10:49 22.32508 -77.41740 34081 ft 392 kts 323°
2026-04-21 10:49 22.37220 -77.44627 34086 ft 392 kts 323°
2026-04-21 10:50 22.41189 -77.47061 34084 ft 391 kts 322°
2026-04-21 10:50 22.46689 -77.50435 34089 ft 391 kts 322°
2026-04-21 10:51 22.51423 -77.53343 34090 ft 391 kts 322°
2026-04-21 10:51 22.55357 -77.55761 34095 ft 391 kts 322°
2026-04-21 10:52 22.60088 -77.58671 34098 ft 391 kts 322°
2026-04-21 10:52 22.64815 -77.61581 34092 ft 390 kts 322°
2026-04-21 10:53 22.69538 -77.64490 34091 ft 390 kts 322°
2026-04-21 10:53 22.74259 -77.67401 34092 ft 390 kts 322°
2026-04-21 10:54 22.78974 -77.70310 34091 ft 389 kts 322°
2026-04-21 10:54 22.83686 -77.73220 34096 ft 389 kts 322°
2026-04-21 10:55 22.88398 -77.76132 34097 ft 390 kts 322°
2026-04-21 10:55 22.93077 -77.79026 34097 ft 389 kts 322°
2026-04-21 10:56 22.97786 -77.81940 34097 ft 389 kts 322°
2026-04-21 10:56 23.02493 -77.84857 34099 ft 389 kts 322°
2026-04-21 10:57 23.07190 -77.87773 34098 ft 389 kts 322°
2026-04-21 10:57 23.11881 -77.90687 34100 ft 389 kts 322°
2026-04-21 10:58 23.16577 -77.93607 34104 ft 388 kts 322°
2026-04-21 10:58 23.21268 -77.96527 34100 ft 388 kts 322°
2026-04-21 10:59 23.25960 -77.99449 34102 ft 388 kts 322°
2026-04-21 10:59 23.30622 -78.02354 34106 ft 389 kts 322°
2026-04-21 11:00 23.35313 -78.05281 34106 ft 389 kts 322°
2026-04-21 11:00 23.40005 -78.08211 34108 ft 389 kts 322°
2026-04-21 11:01 23.44703 -78.11146 34110 ft 389 kts 321°
2026-04-21 11:01 23.49397 -78.14082 34112 ft 389 kts 321°
2026-04-21 11:02 23.56443 -78.18492 34117 ft 389 kts 321°
2026-04-21 11:02 23.61105 -78.21414 34117 ft 389 kts 321°
2026-04-21 11:03 23.65803 -78.24361 34118 ft 389 kts 321°
2026-04-21 11:03 23.70491 -78.27303 34117 ft 389 kts 321°
2026-04-21 11:04 23.75179 -78.30248 34111 ft 388 kts 321°
2026-04-21 11:04 23.79861 -78.33192 34121 ft 388 kts 321°
2026-04-21 11:05 23.84535 -78.36134 34129 ft 388 kts 321°
2026-04-21 11:05 23.89215 -78.39082 34122 ft 388 kts 321°
2026-04-21 11:06 23.93898 -78.42033 34125 ft 388 kts 321°
2026-04-21 11:06 23.98576 -78.44984 34128 ft 388 kts 321°
2026-04-21 11:07 24.02895 -78.48325 34124 ft 382 kts 315°
2026-04-21 11:07 24.07189 -78.51768 34129 ft 383 kts 316°
2026-04-21 11:08 24.11501 -78.55196 34130 ft 382 kts 316°
2026-04-21 11:08 24.15808 -78.58617 34133 ft 383 kts 316°
2026-04-21 11:09 24.20092 -78.62023 34134 ft 382 kts 316°
2026-04-21 11:09 24.24395 -78.65447 34130 ft 382 kts 316°
2026-04-21 11:10 24.28697 -78.68873 34138 ft 382 kts 316°
2026-04-21 11:10 24.32998 -78.72301 34131 ft 382 kts 316°
2026-04-21 11:11 24.37294 -78.75728 34142 ft 382 kts 316°
2026-04-21 11:11 24.41600 -78.79166 34141 ft 382 kts 316°
2026-04-21 11:12 24.45894 -78.82597 34138 ft 382 kts 316°
2026-04-21 11:12 24.50186 -78.86030 34145 ft 381 kts 316°
2026-04-21 11:13 24.54444 -78.89438 34136 ft 382 kts 316°
2026-04-21 11:13 24.58737 -78.92878 34150 ft 381 kts 316°
2026-04-21 11:14 24.60882 -78.94597 34025 ft 381 kts 317°
2026-04-21 11:14 24.63020 -78.96314 34105 ft 382 kts 319°
2026-04-21 11:14 24.67340 -78.99780 34147 ft 383 kts 319°
2026-04-21 11:15 24.71641 -79.03234 34148 ft 382 kts 318°
2026-04-21 11:15 24.75940 -79.06691 34153 ft 383 kts 318°
2026-04-21 11:16 24.80214 -79.10130 34154 ft 382 kts 318°
2026-04-21 11:16 24.84506 -79.13587 34149 ft 382 kts 318°
2026-04-21 11:17 24.88805 -79.17052 34157 ft 382 kts 318°
2026-04-21 11:17 24.93093 -79.20511 34159 ft 382 kts 318°
2026-04-21 11:18 24.97379 -79.23973 34160 ft 382 kts 318°
2026-04-21 11:18 25.01663 -79.27435 34157 ft 382 kts 318°
2026-04-21 11:19 25.05919 -79.30878 34163 ft 382 kts 318°
2026-04-21 11:19 25.10209 -79.34351 34162 ft 382 kts 318°
2026-04-21 11:20 25.14490 -79.37821 34164 ft 382 kts 318°
2026-04-21 11:20 25.18775 -79.41296 34164 ft 382 kts 318°
2026-04-21 11:21 25.23064 -79.44778 34172 ft 382 kts 317°
2026-04-21 11:21 25.27354 -79.48264 34170 ft 382 kts 317°
2026-04-21 11:22 25.31639 -79.51748 34173 ft 382 kts 317°
2026-04-21 11:22 25.35924 -79.55235 34172 ft 383 kts 317°
2026-04-21 11:23 25.40209 -79.58729 34176 ft 383 kts 317°
2026-04-21 11:23 25.44465 -79.62206 34175 ft 383 kts 317°
2026-04-21 11:24 25.48753 -79.65711 34175 ft 382 kts 317°
2026-04-21 11:24 25.53033 -79.69214 34180 ft 382 kts 317°
2026-04-21 11:25 25.57309 -79.72716 34188 ft 382 kts 317°
2026-04-21 11:25 25.61580 -79.76216 34186 ft 382 kts 317°
2026-04-21 11:26 25.65826 -79.79700 34184 ft 382 kts 317°
2026-04-21 11:26 25.70098 -79.83208 34187 ft 382 kts 317°
2026-04-21 11:27 25.72207 -79.84940 34185 ft 369 kts 317°
2026-04-21 11:27 25.74224 -79.86598 34194 ft 354 kts 317°
2026-04-21 11:27 25.78128 -79.89812 34183 ft 355 kts 317°
2026-04-21 11:28 25.82187 -79.93154 34189 ft 370 kts 317°
2026-04-21 11:28 25.86398 -79.96624 34190 ft 382 kts 317°
2026-04-21 11:29 25.90638 -80.00121 34196 ft 381 kts 317°
2026-04-21 11:29 25.94879 -80.03621 34193 ft 370 kts 317°
2026-04-21 11:30 25.96903 -80.05292 34146 ft 356 kts 316°
2026-04-21 11:30 25.98866 -80.06916 33893 ft 348 kts 316°
2026-04-21 11:30 26.00801 -80.08516 33401 ft 346 kts 317°
2026-04-21 11:30 26.02730 -80.10112 32923 ft 345 kts 317°
2026-04-21 11:31 26.04648 -80.11698 32475 ft 343 kts 317°
2026-04-21 11:31 26.06557 -80.13279 32041 ft 341 kts 317°
2026-04-21 11:31 26.08452 -80.14849 31610 ft 339 kts 317°
2026-04-21 11:31 26.10336 -80.16409 31182 ft 337 kts 317°
2026-04-21 11:32 26.12213 -80.17964 30764 ft 336 kts 317°
2026-04-21 11:32 26.14082 -80.19514 30366 ft 335 kts 318°
2026-04-21 11:32 26.16089 -80.20862 29988 ft 342 kts 329°
2026-04-21 11:32 26.18266 -80.21969 29780 ft 345 kts 328°
2026-04-21 11:33 26.20449 -80.23118 29633 ft 349 kts 328°
2026-04-21 11:33 26.22646 -80.24267 29472 ft 349 kts 328°
2026-04-21 11:33 26.24843 -80.25412 29242 ft 348 kts 328°
2026-04-21 11:33 26.27033 -80.26553 29053 ft 347 kts 328°
2026-04-21 11:34 26.29188 -80.27676 28854 ft 346 kts 328°
2026-04-21 11:34 26.31366 -80.28811 28658 ft 345 kts 329°
2026-04-21 11:34 26.33545 -80.29947 28472 ft 344 kts 329°
2026-04-21 11:34 26.35709 -80.31075 28275 ft 343 kts 329°
2026-04-21 11:35 26.37875 -80.32205 28077 ft 342 kts 329°
2026-04-21 11:35 26.40030 -80.33330 27883 ft 341 kts 329°
2026-04-21 11:35 26.42179 -80.34452 27688 ft 340 kts 329°
2026-04-21 11:35 26.44314 -80.35567 27491 ft 339 kts 329°
2026-04-21 11:36 26.46452 -80.36685 27298 ft 338 kts 329°
2026-04-21 11:36 26.48580 -80.37797 27104 ft 338 kts 329°
2026-04-21 11:36 26.50705 -80.38909 26911 ft 337 kts 329°
2026-04-21 11:36 26.52793 -80.40001 26728 ft 336 kts 329°
2026-04-21 11:37 26.54910 -80.41109 26535 ft 335 kts 329°
2026-04-21 11:37 26.57018 -80.42213 26345 ft 334 kts 329°
2026-04-21 11:37 26.59119 -80.43314 26154 ft 333 kts 329°
2026-04-21 11:37 26.61215 -80.44412 25965 ft 333 kts 329°
2026-04-21 11:38 26.63379 -80.45361 25743 ft 335 kts 334°
2026-04-21 11:38 26.65571 -80.46241 25559 ft 334 kts 334°
2026-04-21 11:38 26.67754 -80.47132 25378 ft 333 kts 334°
2026-04-21 11:38 26.69929 -80.48028 25189 ft 332 kts 333°
2026-04-21 11:39 26.72094 -80.48925 25003 ft 332 kts 333°
2026-04-21 11:39 26.74258 -80.49822 24817 ft 331 kts 333°
2026-04-21 11:39 26.76413 -80.50717 24625 ft 330 kts 333°
2026-04-21 11:39 26.78561 -80.51610 24432 ft 329 kts 333°
2026-04-21 11:40 26.80708 -80.52502 24248 ft 329 kts 333°
2026-04-21 11:40 26.82846 -80.53392 24064 ft 328 kts 334°
2026-04-21 11:40 26.84983 -80.54281 23872 ft 327 kts 334°
2026-04-21 11:40 26.87116 -80.55169 23662 ft 326 kts 334°
2026-04-21 11:41 26.89216 -80.56044 23453 ft 326 kts 334°
2026-04-21 11:41 26.91338 -80.56928 23264 ft 325 kts 334°
2026-04-21 11:41 26.93454 -80.57810 23077 ft 324 kts 334°
2026-04-21 11:41 26.95568 -80.58691 22891 ft 323 kts 334°
2026-04-21 11:42 26.97674 -80.59570 22708 ft 323 kts 334°
2026-04-21 11:42 26.99777 -80.60447 22521 ft 322 kts 334°
2026-04-21 11:42 27.01873 -80.61323 22338 ft 321 kts 334°
2026-04-21 11:42 27.03964 -80.62196 22145 ft 320 kts 334°
2026-04-21 11:43 27.05350 -80.62775 22033 ft 320 kts 334°
2026-04-21 11:43 27.07434 -80.63646 21831 ft 319 kts 334°
2026-04-21 11:43 27.09512 -80.64515 21665 ft 318 kts 334°
2026-04-21 11:43 27.12263 -80.65666 21392 ft 317 kts 334°
2026-04-21 11:44 27.13656 -80.66250 21276 ft 317 kts 334°
2026-04-21 11:44 27.15720 -80.67114 21103 ft 316 kts 334°
2026-04-21 11:44 27.17778 -80.67976 20933 ft 315 kts 335°
2026-04-21 11:44 27.19835 -80.68838 20745 ft 315 kts 335°
2026-04-21 11:45 27.21882 -80.69697 20563 ft 314 kts 335°
2026-04-21 11:45 27.23904 -80.70545 20388 ft 313 kts 335°
2026-04-21 11:45 27.25944 -80.71401 20208 ft 313 kts 335°
2026-04-21 11:45 27.27982 -80.72257 20024 ft 312 kts 335°
2026-04-21 11:46 27.30013 -80.73110 19848 ft 311 kts 335°
2026-04-21 11:46 27.32038 -80.73961 19670 ft 311 kts 335°
2026-04-21 11:46 27.34058 -80.74810 19493 ft 310 kts 335°
2026-04-21 11:46 27.36078 -80.75660 19327 ft 313 kts 335°
2026-04-21 11:47 27.38155 -80.76553 18940 ft 323 kts 335°
2026-04-21 11:47 27.40305 -80.77484 18647 ft 338 kts 335°
2026-04-21 11:47 27.42539 -80.78449 18324 ft 346 kts 336°
2026-04-21 11:47 27.44802 -80.79428 17979 ft 350 kts 336°
2026-04-21 11:48 27.47075 -80.80410 17634 ft 350 kts 336°
2026-04-21 11:48 27.49343 -80.81391 17275 ft 349 kts 336°
2026-04-21 11:48 27.51574 -80.82357 16938 ft 347 kts 336°
2026-04-21 11:48 27.53822 -80.83330 16535 ft 346 kts 336°
2026-04-21 11:49 27.56076 -80.84312 16006 ft 347 kts 335°
2026-04-21 11:49 27.58263 -80.85460 15544 ft 346 kts 333°
2026-04-21 11:49 27.60431 -80.86607 15190 ft 342 kts 333°
2026-04-21 11:49 27.62573 -80.87732 14845 ft 338 kts 333°
2026-04-21 11:50 27.64704 -80.88846 14494 ft 335 kts 334°
2026-04-21 11:50 27.66809 -80.89945 14159 ft 331 kts 334°
2026-04-21 11:50 27.68889 -80.91031 13790 ft 329 kts 334°
2026-04-21 11:50 27.70967 -80.92116 13427 ft 327 kts 334°
2026-04-21 11:51 27.73038 -80.93198 13085 ft 328 kts 334°
2026-04-21 11:51 27.75113 -80.94282 12746 ft 327 kts 334°
2026-04-21 11:51 27.77175 -80.95359 12412 ft 325 kts 334°
2026-04-21 11:51 27.79212 -80.96425 12076 ft 320 kts 334°
2026-04-21 11:52 27.81201 -80.97465 11752 ft 317 kts 334°
2026-04-21 11:52 27.83188 -80.98505 11427 ft 313 kts 334°
2026-04-21 11:52 27.85152 -80.99533 11099 ft 309 kts 334°
2026-04-21 11:52 27.87098 -81.00553 10789 ft 306 kts 334°
2026-04-21 11:53 27.89019 -81.01559 10477 ft 303 kts 334°
2026-04-21 11:53 27.90927 -81.02559 10164 ft 301 kts 334°
2026-04-21 11:53 27.92816 -81.03549 9821 ft 298 kts 334°
2026-04-21 11:53 27.94737 -81.04414 9467 ft 296 kts 339°
2026-04-21 11:54 27.96659 -81.05215 9141 ft 293 kts 339°
2026-04-21 11:54 27.98583 -81.06029 8553 ft 299 kts 339°
2026-04-21 11:54 28.00524 -81.06855 8024 ft 294 kts 339°
2026-04-21 11:54 28.02400 -81.07654 7665 ft 283 kts 340°
2026-04-21 11:55 28.04203 -81.08423 7361 ft 271 kts 340°
2026-04-21 11:55 28.05948 -81.09167 7071 ft 267 kts 340°
2026-04-21 11:55 28.07682 -81.09907 6773 ft 266 kts 341°
2026-04-21 11:55 28.09398 -81.10626 6475 ft 264 kts 341°
2026-04-21 11:56 28.11097 -81.11335 6340 ft 256 kts 342°
2026-04-21 11:56 28.12743 -81.12025 6245 ft 247 kts 342°
2026-04-21 11:56 28.14328 -81.12687 6092 ft 238 kts 342°
2026-04-21 11:56 28.15799 -81.13477 5944 ft 233 kts 327°
2026-04-21 11:57 28.16827 -81.14865 5741 ft 231 kts 301°
2026-04-21 11:57 28.17225 -81.16605 5533 ft 229 kts 276°
2026-04-21 11:57 28.17064 -81.18379 5333 ft 223 kts 268°
2026-04-21 11:57 28.17257 -81.20045 5110 ft 208 kts 294°
2026-04-21 11:58 28.17690 -81.21572 4957 ft 199 kts 295°
2026-04-21 11:58 28.18117 -81.23042 4794 ft 193 kts 295°
2026-04-21 11:58 28.18549 -81.24499 4636 ft 200 kts 295°
2026-04-21 11:58 28.19013 -81.26049 4508 ft 215 kts 294°
2026-04-21 11:59 28.19564 -81.27667 4176 ft 220 kts 307°
2026-04-21 11:59 28.20623 -81.28835 3885 ft 210 kts 339°
2026-04-21 11:59 28.21978 -81.29299 3714 ft 201 kts 358°
2026-04-21 11:59 28.23358 -81.29652 3809 ft 210 kts 344°
2026-04-21 12:00 28.24664 -81.30407 3555 ft 212 kts 337°
2026-04-21 12:00 28.25952 -81.31212 3148 ft 210 kts 337°
2026-04-21 12:00 28.27236 -81.31988 2802 ft 208 kts 339°
2026-04-21 12:00 28.28571 -81.32518 2586 ft 200 kts 356°
2026-04-21 12:01 28.29934 -81.32671 2499 ft 199 kts
2026-04-21 12:01 28.31306 -81.32686 2168 ft 194 kts
2026-04-21 12:01 28.32608 -81.32615 1860 ft 181 kts 10°
2026-04-21 12:01 28.33840 -81.32555 1524 ft 170 kts
2026-04-21 12:02 28.34987 -81.32561 1236 ft 161 kts
2026-04-21 12:02 28.37094 -81.32640 904 ft 148 kts
2026-04-21 12:02 28.38131 -81.32650 769 ft 151 kts
2026-04-21 12:03 28.39176 -81.32640 630 ft 150 kts
2026-04-21 12:03 28.40214 -81.32648 458 ft 148 kts 359°
2026-04-21 12:03 28.41232 -81.32664 220 ft 144 kts
2026-04-21 12:03 28.42196 -81.32670 106 ft 128 kts 359°
2026-04-21 12:04 28.42564 -81.32673 106 ft 10 kts 359°
2026-04-21 12:04 28.42706 -81.32674 106 ft 30 kts 359°
2026-04-21 12:04 28.42918 -81.32673 110 ft 27 kts
2026-04-21 12:04 28.43053 -81.32555 108 ft 27 kts 73°
2026-04-21 12:05 28.43059 -81.32335 106 ft 29 kts 90°
2026-04-21 12:05 28.43063 -81.32096 103 ft 26 kts 90°
2026-04-21 12:05 28.43014 -81.31996 104 ft 16 kts 168°
2026-04-21 12:05 28.42881 -81.31991 106 ft 25 kts 180°
2026-04-21 12:06 28.42688 -81.31992 110 ft 29 kts 178°
2026-04-21 12:06 28.42480 -81.31987 110 ft 31 kts 180°
2026-04-21 12:06 28.42357 -81.31987 110 ft 7 kts 163°
2026-04-21 12:06 28.42344 -81.31930 111 ft 11 kts 87°
2026-04-21 12:07 28.42347 -81.31802 108 ft 22 kts 90°
2026-04-21 12:07 28.42398 -81.31666 105 ft 18 kts 32°
2026-04-21 12:07 28.42485 -81.31607 104 ft 12 kts 30°
2026-04-21 12:07 28.42546 -81.31561 104 ft 9 kts 34°
2026-04-21 12:08 28.42573 -81.31542 104 ft 3 kts 33°
2026-04-21 12:08 28.42574 -81.31541 104 ft 0 kts 33°
2026-04-21 12:08 28.42572 -81.31543 104 ft 0 kts 36°